RH
61 68 60 53 56 65 59 61 65 67 78 95 100 100 95 76 61 59 64 90 87 84 80 77 71 72 64 59 51 41 30 21 31 30 26 30 30 43 31 28 29 15 24 33 34
54 70 67 51 44 44 58 65 68 66 81 88 85 80 78 67 59 68 77 90 90 78 76 73 69 72 65 54 43 38 28 29 31 29 22 25 30 31 28 27 25 20 14 24 27
50 49 45 45 39 38 49 55 58 61 67 70 66 64 63 74 81 75 89 90 86 78 79 89 77 78 66 60 55 39 29 32 29 22 22 23 30 36 30 28 26 22 15 16 22
39 40 41 38 36 38 47 48 53 55 56 60 62 64 66 72 84 83 78 73 76 77 89 85 88 81 57 47 41 32 29 29 27 21 19 18 27 33 32 31 29 22 16 14 18
36 34 38 38 36 37 45 52 52 44 43 41 46 43 50 55 77 74 74 78 79 86 85 92 71 63 54 44 34 27 33 27 23 16 15 18 22 31 35 31 31 26 19 14 15
35 36 42 42 38 37 43 50 48 43 37 34 30 29 30 35 63 79 76 78 83 82 87 78 67 55 42 33 28 20 20 20 18 15 12 14 21 23 36 30 27 21 20 15 14
41 40 37 39 45 37 44 48 44 41 39 32 30 28 27 29 45 73 77 83 85 84 76 65 59 49 39 34 16 10 10 12 14 13 12 13 13 17 43 33 26 23 19 20 15
32 36 39 33 40 45 41 42 40 38 39 32 32 29 29 27 35 71 84 82 83 76 63 56 51 43 39 18 8 7 9 8 8 12 14 14 14 34 41 24 25 21 19 19 19
25 28 26 21 22 33 35 34 42 44 39 35 34 29 25 30 33 50 70 74 74 65 53 46 50 48 33 9 5 5 6 6 7 11 15 10 14 19 28 25 21 23 19 19 23
21 23 22 20 17 18 26 27 26 32 35 35 30 27 25 24 26 52 67 69 63 52 49 50 50 45 20 6 4 4 3 4 6 8 12 10 13 20 26 29 28 26 13 13 20
17 18 19 18 16 15 16 21 22 20 18 18 20 21 22 23 36 62 68 59 52 52 45 46 50 42 11 5 3 2 2 2 3 5 5 6 10 19 24 29 31 33 28 18 20
14 14 14 15 16 16 17 22 20 15 15 17 18 20 22 27 50 67 59 50 51 47 44 49 57 37 8 4 2 2 2 2 2 4 5 7 8 16 22 26 34 40 34 25 24
15 17 17 16 15 17 18 18 16 16 16 17 18 20 24 42 57 60 50 50 49 44 46 51 55 30 7 3 3 3 3 3 3 3 5 7 8 11 15 21 30 44 49 33 24
17 20 20 20 20 20 19 18 18 16 15 16 20 21 29 57 61 60 50 46 44 41 48 53 54 27 7 3 4 4 4 3 3 3 5 7 9 10 12 17 27 47 63 50 31
24 22 23 22 22 21 22 22 19 18 16 18 20 25 47 69 62 53 49 46 42 44 50 53 51 23 7 4 4 5 5 4 3 4 4 7 10 10 12 18 32 49 63 58 34
28 24 23 23 24 24 23 21 19 18 19 20 22 32 78 72 60 50 46 39 40 49 60 62 43 20 8 4 5 5 6 5 5 4 4 5 10 14 12 14 27 48 56 57 42
26 24 26 25 23 23 23 20 20 20 20 21 24 64 86 66 55 52 44 42 48 52 71 61 44 18 8 4 6 6 6 6 6 6 4 4 9 17 10 15 26 37 47 52 48
26 25 27 24 22 21 20 19 22 22 24 27 42 82 71 60 55 54 51 46 50 80 62 46 48 18 8 5 6 6 6 6 7 6 6 4 8 16 15 12 16 26 35 40 47
31 32 27 21 20 19 17 19 22 23 25 37 62 76 66 51 53 58 48 53 57 83 61 48 49 20 9 5 5 7 6 6 7 7 7 5 5 13 11 12 20 27 31 42 53
28 22 20 19 18 16 18 29 32 32 39 55 72 70 52 50 56 53 55 56 88 77 69 47 44 19 9 6 5 7 7 7 6 7 7 6 4 10 14 12 18 27 34 43 62
23 23 20 19 16 18 33 41 45 46 56 77 73 56 51 61 69 65 58 68 87 70 57 49 38 18 10 7 5 6 6 7 7 5 6 6 3 8 12 13 16 27 38 39 51
22 20 20 18 17 28 46 48 49 76 92 74 58 53 64 80 72 58 62 92 71 66 48 48 32 15 10 7 5 6 6 7 6 5 6 5 4 4 8 12 10 18 32 39 39
19 20 19 21 30 39 46 46 70 92 78 57 59 73 86 88 68 57 81 91 70 68 48 48 25 15 9 7 6 6 5 6 6 5 5 7 7 2 5 8 8 11 20 32 35
17 18 19 34 36 41 50 86 84 76 72 59 78 91 93 78 63 68 85 81 75 77 60 50 24 13 10 6 6 6 5 6 6 5 6 8 5 2 4 6 9 9 11 19 30
15 18 28 37 39 43 66 78 79 75 89 80 100 92 80 72 72 86 82 81 69 54 57 49 26 12 10 7 7 6 6 6 6 5 6 6 5 4 4 5 8 9 9 11 17
22 23 40 71 64 73 88 96 89 92 95 85 84 85 77 72 72 72 65 56 54 51 50 46 24 10 10 7 7 6 4 6 6 5 5 5 5 4 4 3 6 9 8 9 12
26 39 65 100 81 82 100 99 99 95 98 75 76 72 72 68 68 65 60 52 48 50 44 42 18 9 10 6 8 6 4 6 6 5 6 5 6 4 4 3 5 7 9 9 12
Wind_Speed
25 22 23 25 30 29 30 32 35 36 36 36 38 39 43 48 51 53 51 54 57 61 66 69 72 75 79 83 88 89 88 76 80 79 75 77 78 81 74 75 75 91 87 87 89
28 27 29 32 33 33 33 34 36 38 37 39 40 43 45 50 54 59 55 59 62 65 70 75 79 79 86 92 98 100 97 91 87 85 76 74 78 82 76 80 80 85 93 91 92
31 33 34 35 37 38 35 37 40 42 41 44 45 46 50 52 58 60 61 64 68 71 78 81 87 92 95 97 103 109 105 100 93 85 82 77 80 82 81 79 84 85 97 95 92
36 36 37 38 39 39 39 42 42 44 46 48 50 52 56 59 62 63 64 66 69 75 80 87 93 98 103 110 115 120 115 102 90 85 78 77 82 84 83 74 90 90 96 100 95
38 38 41 41 40 41 42 42 44 45 47 51 53 56 59 60 64 69 70 71 74 80 85 92 97 106 112 120 126 120 102 96 88 79 75 80 79 87 80 82 92 98 93 99 101
43 41 42 43 42 42 43 44 45 47 50 55 56 59 63 65 68 69 72 76 83 87 91 100 106 118 123 126 118 106 96 90 83 77 76 75 78 87 79 89 101 106 97 99 106
45 45 45 44 44 43 44 45 49 52 55 57 60 64 66 72 72 73 76 81 89 94 100 108 113 126 131 115 105 96 87 80 78 73 73 78 77 77 87 100 104 110 103 98 104
47 48 48 49 46 47 47 49 54 56 60 60 63 69 71 74 76 78 82 87 91 96 104 113 118 124 124 109 99 84 76 71 70 70 72 75 69 81 98 106 108 114 111 103 103
50 50 51 51 51 51 51 53 58 60 65 66 69 73 74 75 79 82 84 88 93 101 108 116 124 121 117 101 87 76 67 62 62 67 68 66 72 92 101 107 114 116 114 109 105
52 53 55 55 54 55 56 59 61 63 68 71 72 76 76 79 83 84 86 92 101 106 112 119 119 118 107 91 77 69 61 58 58 64 63 64 72 88 100 105 109 118 115 107 106
54 55 57 60 59 58 59 61 63 66 72 72 74 76 78 80 82 85 89 96 99 106 115 120 120 116 100 85 70 60 56 54 55 61 58 60 70 87 98 104 108 115 121 112 105
56 58 59 61 59 58 61 62 65 69 70 72 75 75 77 80 83 86 91 96 101 109 113 119 123 112 94 77 64 55 50 50 51 57 58 64 72 86 94 100 104 113 119 116 108
53 53 55 56 56 57 60 63 68 68 70 72 73 72 76 79 83 87 93 97 104 114 117 122 124 106 86 70 59 52 47 44 47 53 57 62 73 83 90 98 106 110 114 114 108
51 51 51 52 54 57 60 61 62 67 69 70 69 71 75 78 83 89 94 99 107 115 118 127 124 102 82 67 54 48 44 41 44 49 55 63 75 81 86 95 104 108 112 113 112
47 46 45 47 49 52 55 59 64 67 70 66 67 73 74 78 85 92 97 101 111 117 119 131 121 99 80 65 52 45 41 38 39 44 52 64 72 80 81 88 101 109 111 113 114
45 45 47 49 51 56 59 62 68 68 64 66 69 71 75 81 89 95 99 105 111 117 125 134 113 94 78 62 51 42 39 36 36 40 53 60 69 78 82 87 100 110 113 114 115
45 46 49 51 54 57 62 65 66 63 65 67 69 71 76 84 90 96 102 109 114 117 127 131 114 93 76 64 51 43 36 36 36 39 48 57 63 76 83 88 98 110 116 115 115
49 50 53 55 57 62 64 66 65 64 66 68 69 74 79 84 91 99 105 112 117 121 131 124 113 92 78 66 53 43 37 34 35 39 41 48 60 75 82 89 97 107 115 119 119
50 53 55 58 61 62 66 68 70 65 65 66 70 75 81 88 93 101 107 112 118 124 131 127 117 93 77 67 53 44 38 36 32 38 38 46 60 77 85 85 94 103 110 116 120
48 52 55 59 60 63 67 68 66 61 61 67 71 76 83 89 97 104 108 114 119 127 133 132 115 93 78 67 53 45 37 37 34 34 39 48 64 81 86 87 92 99 107 114 118
45 51 56 61 63 63 66 65 61 61 63 68 73 79 86 90 101 104 111 116 122 129 135 130 111 93 80 69 55 43 33 32 36 32 41 52 63 81 89 92 93 97 103 111 116
48 52 58 62 63 63 64 62 59 62 66 70 76 81 88 95 101 107 113 120 126 134 134 130 108 94 80 69 55 45 31 29 32 34 39 48 59 85 92 96 95 96 101 107 113
48 53 59 60 63 63 59 58 60 64 69 73 79 83 92 99 103 108 114 122 130 134 138 130 107 96 79 68 58 43 29 26 31 33 39 44 66 79 89 95 93 94 99 104 108
50 53 54 58 64 58 53 59 64 66 74 77 83 89 95 103 108 112 118 125 130 137 144 127 109 97 80 69 59 46 34 24 30 30 34 52 66 69 83 88 92 94 98 102 104
53 51 56 60 58 54 54 61 67 70 77 81 88 93 99 104 109 116 122 129 137 142 137 123 108 96 81 69 60 49 35 29 29 28 40 47 61 56 77 84 89 93 95 100 104
51 54 54 54 56 56 60 65 72 76 81 84 88 96 102 107 113 119 124 131 135 139 130 118 106 93 80 68 60 53 34 29 29 31 41 45 58 54 71 79 85 90 92 94 101
54 55 50 53 58 60 66 71 75 79 86 90 94 99 106 111 116 122 128 133 136 135 126 117 104 89 76 66 60 56 37 29 31 33 37 45 54 54 65 76 81 85 87 88 92
Wind_Direction
309 306 309 315 318 312 312 312 314 313 313 309 312 310 310 307 308 307 318 310 310 309 308 307 304 303 305 304 301 301 301 307 295 284 277 270 266 262 252 242 239 234 229 233 235
309 304 307 310 313 315 313 312 311 317 315 314 314 314 312 312 311 310 317 311 308 307 308 308 307 307 305 304 303 301 301 298 289 283 276 268 265 262 257 245 240 235 228 229 233
303 303 304 303 307 310 312 310 311 315 313 314 315 316 312 314 315 316 313 311 309 308 309 310 310 310 309 305 302 301 302 295 289 284 270 263 257 252 251 243 240 233 230 227 230
300 301 301 300 304 307 309 311 311 312 314 314 313 315 315 316 314 312 310 311 308 307 309 310 311 308 308 306 303 301 300 293 283 279 267 259 252 247 243 238 237 234 228 227 228
292 297 302 299 300 304 306 309 310 312 313 313 314 314 314 314 313 311 311 311 312 312 312 312 312 308 308 307 304 300 293 287 280 273 262 253 247 241 236 234 231 234 227 224 225
290 296 300 299 298 302 302 305 306 307 309 309 313 312 314 313 311 311 312 311 314 316 313 314 313 313 311 308 304 297 290 283 276 266 257 247 240 236 231 231 229 231 228 222 224
289 291 295 299 295 298 300 301 303 305 306 308 310 311 313 313 312 310 309 311 313 315 314 314 315 315 313 309 303 297 290 282 273 260 250 242 231 230 229 228 226 230 228 220 220
288 290 291 295 297 297 298 300 301 303 303 305 308 310 312 312 311 312 311 311 312 314 315 316 316 316 314 311 305 297 287 278 269 258 245 239 227 226 225 225 225 226 228 222 216
290 290 290 294 295 294 296 299 298 300 301 304 307 308 310 311 312 312 311 310 313 314 316 317 318 319 318 313 305 296 287 275 265 255 244 235 223 220 221 220 224 224 226 221 214
289 289 291 292 296 295 295 296 298 299 300 303 305 307 308 308 312 311 311 312 315 317 318 322 323 322 321 314 305 297 285 273 260 252 242 233 221 221 218 219 221 223 227 226 217
289 290 290 293 296 297 295 293 296 299 300 302 303 304 307 310 311 312 313 315 318 318 320 324 329 327 324 317 308 297 284 270 257 247 240 232 222 219 218 218 217 220 220 221 215
288 290 290 292 295 295 295 295 298 300 301 301 302 305 308 311 311 313 316 319 321 322 324 330 334 330 326 320 310 298 282 267 255 245 235 225 219 219 217 215 216 219 219 218 213
290 292 293 293 294 295 296 297 299 300 301 303 305 309 310 312 313 317 319 321 322 323 328 335 336 332 329 323 311 302 286 267 253 243 233 224 221 217 218 215 213 216 219 217 215
289 293 296 296 296 298 299 302 303 303 304 305 308 311 312 314 316 318 320 321 323 326 330 339 338 335 331 325 314 303 288 270 253 243 233 221 218 218 217 215 212 214 216 216 214
289 294 299 301 302 302 306 308 309 308 308 309 311 314 315 317 318 320 321 322 324 328 336 339 339 336 333 328 318 306 292 275 256 243 232 222 214 219 214 214 211 212 215 218 213
286 292 296 299 303 306 309 311 312 311 312 312 314 316 317 318 320 321 320 324 326 330 339 340 339 338 334 328 318 307 294 276 261 243 232 224 212 219 216 212 212 210 214 216 215
285 292 296 299 304 307 311 313 313 312 314 314 317 317 318 319 321 321 323 326 329 336 340 341 340 339 335 329 320 307 294 279 261 246 236 226 211 218 217 215 211 211 212 214 217
287 293 298 301 305 309 311 312 316 314 314 317 318 317 319 320 322 323 326 328 331 338 343 343 341 340 337 331 324 311 295 280 264 249 238 228 210 213 219 218 214 213 213 213 215
292 297 301 304 306 309 312 312 312 312 313 316 316 318 319 321 323 325 327 329 335 338 342 345 341 341 338 332 327 316 298 285 267 255 237 225 211 212 218 217 216 213 212 213 214
295 300 304 308 308 311 311 312 312 313 316 316 317 318 320 321 325 326 328 333 337 339 342 343 343 341 338 334 329 322 304 289 277 255 237 224 210 215 213 216 216 214 212 212 213
293 298 303 308 310 311 312 314 316 317 316 316 317 319 321 324 326 327 330 335 336 339 342 343 342 341 338 335 329 325 308 292 278 257 237 224 214 213 212 215 215 213 213 213 213
292 298 303 307 308 312 314 313 315 316 316 317 318 321 322 324 327 328 333 335 336 340 343 344 342 341 338 334 329 323 315 296 279 258 235 227 220 216 213 214 214 211 211 213 214
295 298 303 306 308 312 312 313 314 315 314 318 320 323 323 324 327 331 333 334 336 340 342 345 342 341 337 333 328 323 318 296 277 256 236 222 222 219 216 215 216 211 211 211 213
295 298 301 305 308 310 312 313 313 316 317 320 322 324 324 325 329 332 332 334 336 339 341 344 341 341 336 333 327 322 312 296 278 257 239 221 227 221 219 215 216 215 211 212 211
298 300 304 307 307 308 311 312 314 317 319 320 323 323 324 328 330 331 333 335 336 337 340 343 341 340 335 333 326 322 310 294 278 256 238 229 232 222 220 219 215 216 214 212 212
300 302 306 305 306 311 315 314 316 318 319 319 320 321 324 329 329 331 333 334 337 340 341 342 341 340 335 332 325 319 312 291 273 255 241 230 233 224 220 221 217 217 217 212 212
301 304 304 307 308 311 314 315 316 317 318 318 320 323 327 328 329 330 332 335 338 339 340 341 340 340 335 331 321 318 320 289 270 255 240 233 233 230 221 221 218 218 218 217 212